THORAD DELTA 1 DEB, 8170

Orbit data source: Space-Track

THORAD DELTA 1 DEB, 8170 is space debris in SSO originally from a launch on Fri, 15 Nov 1974 UTC launched from the Air Force Western Test Range (AFWTR). Debris objects in space refer to the collection of defunct objects orbiting the Earth. Examples of debris include non-operational satellites, rocket bodies, and fragments generated from explosions, collisions, or faulty payload assembly.

Loading next visibility...
Identifier
8170, 1974-089AL
Orbit
SSO
Last TLE update
10 hours ago
Origin
Manufacturer
Unknown
Mission
Spacecraft
Bus & Motor
Unknown
Mass
Unknown
Launch date (UTC)
1974-11-15 (51 years ago)
Launch vehicle
Unknown
Launch site
Air Force Western Test Range (AFWTR)
Object type
Payload
Rocket body
Debris
Shape & HBR
Unknown
Radar Cross Section
Small (<0.1 m²)

Expand to show TLE details & history

TLE from 10 hours ago
0 THORAD DELTA 1 DEB
1  8170U 74089AL  25191.57450416  .00007682  00000-0  44814-2 0  9990
2  8170 101.6193 121.1559 0051930 198.3208 334.9757 14.08172068441624
Epoch: 2025-07-10T13:47Z
TLE epoch observation values (Epoch: 2025-07-10T13:47:17.159Z)
Latitude
6.74116°
Longitude
166.9809°
Altitude
833.746 km
Speed
7.454 km/s
True Right ascension
20h 10m 09s
True Declination
6° 42' 06"
Sunlit
Object was in full shadow at epoch
Visualization orbit readout
Latitude
12.78616°
Longitude
168.80173°
Altitude
835.128 km
Speed
7.453 km/s
Apparent Right ascension
21h 53m 07s
Apparent Declination
-13° 24' 52"
Sunlit
Object is in full shadow
Visualization observer readout
Local Sidereal Time
12:15:34
Azimuth
59.814° ENE
Elevation
-49.059°
Doppler factor
1
Orbital elements
Apogee altitude
900.572 km
Perigee altitude
825.366 km
Semi-major axis
7,241.106 km
Eccentricity
0.00519
Inclination
101.6193°
RAAN
121.1559°
Arg. of periapsis
198.3208°
True anomaly
Unknown
Mean anomaly
334.9757°
Eccentric anomaly
Unknown
Mean motion
3.52238 °/min
Orbital period
102.2 mins
BSTAR
0.0044814
Loading maneuver chart data...
Loading SW <> Apogee altitude chart data...
Loading historical data...
Loading historical data...
Loading historical data...
Loading historical data...
Loading historical data...
Loading historical data...
Loading historical data...

THORAD DELTA 1 DEB Visibility forecast

Observer location: undefined°, undefined°

Span
Click to sort rows by Start time (UTC) header in descending order
Start Az.
Max El. time (UTC)
Max El. Az.
Max El.
End time (UTC)
End Az.
10 mins2025-07-11 08:18:25.370Z20.537° NNE2025-07-11 08:23:25.370Z131.999° SE44.291°2025-07-11 08:28:25.370Z193.678° SSW
4 mins2025-07-11 10:01:25.370Z325.945° NNW2025-07-11 10:03:25.370Z301.512° NW14.854°2025-07-11 10:05:25.370Z277.799° WNW
7 mins2025-07-11 18:07:25.370Z105.113° ESE2025-07-11 18:10:25.370Z60.54° ENE25.573°2025-07-11 18:14:25.370Z8.979° NNE
9 mins2025-07-11 19:46:25.370Z191.923° SSW2025-07-11 19:50:25.370Z248.017° W33.806°2025-07-11 19:55:25.370Z325.325° NNW
|